Location: Nairn
(57.5833°N, 3.8667°W)
Time: 20:20:02
(UTC+00:00)

S-56A Canister/Altair - Pass Details

Date: 03 October 2022
Orbit: 638 x 2494 km, 38.9° (Epoch: 05 December)

Event Time Altitude Azimuth Distance (km) Brightness Sun altitude
Exits shadow 05:32:28 - 244° (WSW) 3,773 10.5 -7.6°
Reaches altitude 10° 05:34:52 10° 231° (SW) 3,202 10.2 -7.3°
Maximum altitude 05:37:54 13° 208° (SSW) 2,744 10.1 -6.9°
Drops below altitude 10° 05:40:33 10° 183° (S) 2,724 10.3 -6.6°
Sets 05:44:27 0° 155° (SSE) 3,365 11.2 -6.0°
